Theta_e
297 297 296 296 296 296 296 295 295 294 294 294 293 293 293 293 292 292 292 292 291 291 291 290 290 289 289 289 289 288 288 287 287 287 287 287 287 287 286 286 286 286
297 297 297 296 296 296 296 296 295 294 294 294 293 293 292 292 292 292 292 291 291 291 291 290 290 289 289 289 289 288 288 287 287 287 287 287 287 287 287 286 286 286
297 297 297 296 296 296 296 295 295 294 294 294 293 292 292 292 292 291 291 291 291 290 290 290 289 289 289 289 288 288 288 288 287 287 287 287 287 287 286 286 286 286
297 297 296 296 296 295 295 295 294 294 294 293 293 292 292 292 292 291 291 290 290 290 290 289 289 289 288 288 288 288 288 287 287 287 287 287 287 286 286 286 285 285
297 297 297 296 296 295 295 295 294 294 294 294 293 292 292 292 292 291 291 290 290 290 290 289 289 288 288 288 288 288 287 287 287 287 287 286 286 285 285 285 284 284
297 297 297 297 297 296 296 296 295 294 294 293 293 292 292 292 292 291 291 290 290 290 289 289 289 288 288 288 288 288 287 287 287 287 286 286 285 285 284 284 284 284
298 298 297 297 297 297 297 297 296 295 294 293 293 292 292 292 291 291 290 290 290 289 289 289 288 288 288 288 287 287 287 287 287 286 285 285 285 284 284 283 283 283
296 296 296 296 297 297 297 297 296 295 294 293 292 292 292 291 291 290 290 290 289 289 288 288 288 288 288 287 287 287 287 286 286 285 284 284 283 283 282 282 282 283
295 295 295 295 295 296 296 296 295 294 293 292 292 292 291 291 290 290 290 289 289 288 288 288 288 288 287 287 287 286 286 285 284 284 283 282 281 281 281 282 282 283
295 295 294 294 294 294 294 294 293 293 292 292 292 291 291 290 290 289 289 289 289 288 288 288 288 287 287 286 285 285 284 283 282 281 281 280 280 281 281 282 282 282
295 294 293 293 293 293 293 292 292 292 292 291 291 290 290 290 289 289 289 289 288 288 288 287 287 286 285 285 284 283 282 281 280 280 280 280 280 281 281 281 282 282
294 293 293 292 292 292 292 292 292 291 291 291 290 290 290 289 289 289 289 288 288 288 287 286 285 285 284 283 282 281 280 280 279 279 280 281 281 281 282 282 282 282
293 293 292 292 292 292 292 291 291 291 291 290 290 290 289 289 289 288 288 288 287 286 285 285 284 283 282 281 280 279 279 279 279 280 281 281 282 282 281 281 281 281
292 292 292 292 292 292 291 291 291 291 290 290 290 289 289 288 288 288 287 287 286 285 285 284 283 281 280 280 279 279 279 279 279 280 281 281 281 281 281 281 281 280
292 292 292 292 292 291 291 291 290 290 290 289 289 289 288 288 287 287 286 286 285 285 284 282 280 279 279 279 279 279 279 278 279 280 280 280 280 280 280 280 280 280
292 292 292 291 291 291 290 290 290 289 289 289 288 288 287 287 287 286 285 285 284 283 282 280 279 279 279 279 278 278 278 278 279 279 280 280 280 280 280 279 279 279
292 291 291 291 290 290 290 289 289 289 288 288 288 287 287 286 285 285 285 284 282 281 280 279 279 278 279 278 278 278 278 278 278 279 279 279 279 279 279 279 279 279
291 291 290 290 290 289 289 289 288 288 288 287 287 286 286 285 285 284 283 282 281 280 279 279 278 278 278 278 278 278 278 278 278 279 279 278 278 278 278 278 278 279
291 290 290 290 289 289 289 288 288 288 287 287 286 285 285 285 284 283 282 281 280 279 279 278 278 278 278 278 278 278 278 278 278 278 278 277 277 277 277 277 277 277
290 290 290 289 289 289 288 288 288 287 287 286 285 285 284 284 283 282 280 279 279 278 278 278 278 278 278 278 278 278 278 278 277 277 277 278 278 277 276 276 276 276
290 289 289 289 289 288 288 288 287 286 286 285 284 284 284 283 281 280 279 279 278 278 278 278 278 278 278 277 278 278 278 278 278 278 278 278 277 276 276 276 276 276
289 289 289 289 288 288 287 287 286 285 285 284 284 283 282 281 280 279 278 278 278 277 277 277 277 277 277 277 278 278 278 278 278 277 277 276 276 275 276 276 276 276
289 289 289 288 288 287 287 286 285 284 284 283 283 282 281 279 279 278 277 277 277 277 277 277 277 277 277 277 278 278 278 277 277 276 276 275 275 276 276 276 276 276
289 289 288 288 287 287 286 285 284 283 283 282 281 280 279 278 278 277 277 277 277 277 277 277 277 277 277 278 278 278 277 277 276 275 275 276 276 276 276 276 276 276
289 289 288 287 287 286 285 284 283 283 282 281 279 278 278 278 277 277 277 277 277 277 277 277 277 277 278 278 278 278 277 276 275 275 276 276 276 275 275 275 275 275
289 288 288 287 286 284 283 283 282 281 280 279 278 278 278 277 277 277 276 277 277 277 277 277 277 278 278 278 278 278 277 275 275 276 275 275 275 275 275 275 275 275
Wind_Speed
25 26 27 28 29 30 30 30 31 31 32 33 34 34 35 36 36 37 39 39 40 40 40 40 41 41 41 41 41 41 41 41 41 42 42 42 42 42 43 43 42 42
27 28 29 30 31 32 32 32 32 33 34 34 34 35 36 36 37 39 40 41 42 41 41 40 41 41 42 42 42 42 42 42 42 42 43 43 43 44 44 44 43 43
30 31 31 32 33 34 34 34 34 34 35 35 35 35 36 37 38 40 41 42 43 43 42 41 41 41 42 42 43 43 42 42 43 43 43 44 44 44 44 44 43 43
32 33 34 34 35 35 35 35 35 35 36 36 35 36 37 38 39 41 43 43 43 43 42 41 41 41 42 42 42 43 43 43 44 44 44 45 44 44 44 43 43 44
36 37 37 37 38 38 37 38 38 37 36 36 36 36 38 39 40 41 43 44 44 44 43 42 41 40 41 42 42 42 43 44 45 45 45 45 44 43 43 43 43 45
38 38 38 38 38 38 39 39 39 38 37 37 36 38 39 40 41 41 43 44 45 45 44 42 41 41 41 42 43 43 43 45 46 46 45 45 45 44 44 44 45 47
36 36 36 36 37 37 38 39 39 38 37 37 37 38 40 41 42 41 42 44 44 44 43 41 41 41 41 41 42 44 45 46 47 46 46 46 46 46 46 46 47 47
34 35 35 36 37 37 37 37 36 35 35 35 37 39 41 42 42 42 42 43 43 42 41 40 40 40 41 41 42 44 45 45 45 45 46 47 47 48 48 46 44 43
34 35 36 36 36 36 35 33 32 32 32 34 38 40 42 42 42 42 42 41 41 41 40 40 41 41 41 41 42 43 44 45 45 45 46 46 46 46 45 42 40 40
33 34 35 35 34 32 31 31 31 32 34 37 39 41 41 42 42 41 41 40 40 41 41 41 41 40 41 40 41 42 43 44 45 45 45 44 44 43 42 41 40 40
33 33 33 32 31 31 31 32 34 36 37 38 39 40 41 41 41 40 40 40 40 40 41 40 40 39 39 40 40 42 43 44 44 45 45 45 44 42 41 40 39 38
32 32 32 32 32 34 35 36 36 37 38 38 39 40 40 40 40 39 39 40 40 40 39 38 38 38 39 40 42 43 43 43 44 45 44 42 40 39 37 36 36 38
31 32 33 34 35 35 36 36 36 37 38 39 39 39 39 39 39 39 39 39 39 38 38 38 39 40 40 41 42 42 42 44 45 44 41 38 37 36 36 37 38 39
32 33 33 33 34 34 35 36 36 37 38 38 38 38 38 38 38 38 38 38 38 38 39 40 41 41 42 42 41 42 43 45 44 41 38 37 37 37 37 38 40 41
34 33 32 32 33 34 34 35 35 36 36 36 36 36 36 37 37 37 38 38 39 41 41 42 41 41 41 41 41 43 43 44 43 40 38 37 36 37 38 40 41 42
33 31 31 32 32 33 33 33 34 35 35 35 35 36 36 37 38 38 39 41 42 43 43 42 41 41 40 40 41 42 42 42 42 39 36 35 35 37 38 41 43 42
31 31 31 31 31 31 32 33 33 34 34 35 36 37 38 38 39 40 41 43 44 44 44 42 41 40 39 40 41 42 41 41 39 36 34 33 35 37 38 40 40 38
30 30 30 30 30 31 32 33 33 34 35 37 38 39 39 40 41 42 44 44 44 45 44 43 41 39 39 41 42 42 41 39 36 34 35 37 40 41 40 39 37 34
29 29 30 30 31 31 32 34 35 36 37 38 39 40 40 42 43 44 45 45 45 45 44 42 40 39 40 42 43 42 40 37 36 37 39 41 43 43 41 40 37 35
29 29 30 31 32 33 35 35 36 37 38 39 40 41 42 44 45 46 46 46 45 44 43 42 40 40 41 42 43 42 40 38 39 41 41 43 44 42 41 40 37 35
29 30 31 33 34 35 36 37 37 38 38 39 41 42 44 46 46 47 47 46 44 43 42 41 41 41 42 43 43 41 40 40 40 42 43 43 43 41 39 38 36 37
29 31 33 34 35 36 36 37 38 38 39 41 43 45 46 47 47 47 46 45 44 42 41 42 42 42 42 42 42 41 40 40 41 42 42 41 39 37 36 37 37 38
31 33 34 35 35 36 37 37 38 39 41 42 45 47 47 47 47 46 44 44 43 42 42 42 43 44 44 43 42 40 39 39 40 39 37 36 36 36 36 37 38 38
31 33 34 35 35 36 37 38 39 40 42 44 46 47 47 46 46 45 44 43 42 41 42 43 45 46 44 42 40 39 38 38 37 35 35 35 37 37 37 38 40 40
32 33 34 35 36 36 37 38 40 42 43 45 45 45 46 46 45 45 44 43 42 42 43 45 46 46 44 41 39 38 37 35 34 33 35 36 37 38 40 41 42 44
32 33 34 35 35 36 37 39 41 42 43 44 44 44 45 45 44 44 44 44 44 44 45 45 45 45 44 41 38 37 36 34 33 34 35 37 38 40 43 44 45 47
Wind_Direction
309 308 308 308 308 310 310 310 309 308 309 311 312 313 315 317 318 318 318 318 317 316 314 313 311 310 310 311 311 311 310 310 310 310 309 308 308 307 306 306 305 304
305 304 303 303 304 306 307 307 305 304 305 307 308 310 312 313 314 313 314 314 315 316 315 313 310 309 309 310 311 312 311 311 311 311 311 310 310 309 308 307 307 306
302 301 300 300 300 301 302 302 301 301 302 304 305 307 309 310 310 308 309 310 312 314 314 312 309 307 307 309 310 311 311 311 310 311 310 310 309 309 308 307 306 305
299 299 298 297 297 297 296 296 296 298 300 301 303 305 306 307 307 306 305 307 309 312 312 310 306 305 306 307 308 309 310 310 310 311 311 310 309 308 307 306 304 303
296 295 294 293 292 291 291 291 292 294 296 298 300 301 303 306 307 306 304 305 307 310 310 308 304 303 303 305 307 308 309 309 310 311 310 309 308 307 306 305 304 303
292 291 290 290 289 288 287 287 288 290 292 294 295 296 300 305 307 306 304 304 306 308 309 307 304 303 303 304 306 307 308 308 308 309 308 307 307 306 306 305 304 304
294 294 294 293 292 291 289 288 287 287 289 291 291 294 300 305 307 306 304 304 306 307 308 308 306 305 305 305 306 306 306 307 307 308 308 308 308 307 306 305 303 302
301 301 300 298 297 295 294 293 291 289 289 289 292 297 302 305 306 305 305 306 307 308 309 308 307 306 305 305 305 305 306 307 307 308 308 308 307 306 306 304 300 297
306 305 303 300 299 298 297 297 296 294 293 294 297 301 304 305 306 307 308 309 309 309 309 308 307 306 306 306 306 306 307 307 308 308 308 307 306 304 303 300 295 292
309 306 303 301 300 299 299 300 299 299 299 300 302 304 305 307 309 310 311 310 310 309 308 307 307 306 306 306 307 308 308 309 309 310 309 308 305 303 301 298 294 292
312 307 304 302 301 302 302 303 303 303 303 304 305 307 309 311 311 312 311 310 309 308 307 307 307 307 308 308 310 311 312 313 313 312 311 309 306 303 300 297 294 291
315 309 305 304 304 304 305 305 305 305 306 307 309 310 311 312 312 310 309 308 307 307 308 308 309 310 312 314 316 318 318 316 314 312 309 305 301 298 296 294 291 289
314 309 306 305 305 306 306 307 307 308 310 310 311 312 311 311 310 309 308 308 309 309 310 312 314 316 319 320 322 321 319 316 314 310 304 298 295 294 293 292 289 286
314 311 309 308 307 307 308 310 311 311 311 311 311 310 310 310 310 310 310 310 311 313 316 319 321 322 323 324 323 321 318 316 312 306 299 297 296 294 292 290 287 287
315 313 312 310 310 311 312 312 312 311 310 310 311 311 311 312 312 312 313 315 317 320 323 324 324 323 324 324 322 320 318 314 309 303 299 298 296 294 291 290 290 291
314 313 313 313 314 315 314 313 311 311 311 312 313 313 314 315 316 317 319 321 323 324 325 324 323 323 323 322 321 319 316 313 308 303 300 297 295 292 292 293 295 294
314 315 316 317 316 315 314 313 313 314 315 316 317 317 318 319 321 323 324 325 325 324 323 322 321 322 322 322 321 319 316 313 308 303 299 296 295 294 294 296 296 293
317 318 318 318 317 316 316 316 317 318 319 320 321 321 322 323 324 325 325 325 323 322 321 321 320 321 322 322 321 320 318 314 307 302 299 298 299 299 297 297 296 292
319 319 319 319 319 319 320 321 322 323 323 323 323 323 324 324 325 325 324 323 321 321 321 319 319 321 323 323 323 322 320 314 308 305 303 303 304 303 302 301 298 295
321 320 321 321 322 323 324 325 325 324 324 324 324 324 324 324 324 323 322 321 321 321 320 319 320 322 324 325 325 323 320 315 312 311 309 308 309 309 309 306 301 297
323 323 324 324 325 326 326 326 325 324 324 324 324 324 324 323 323 322 321 321 322 321 320 319 320 323 326 328 326 323 320 317 315 314 313 313 314 312 309 304 300 300
326 326 326 326 326 326 326 325 324 324 325 325 324 323 323 322 322 322 322 322 322 322 322 321 320 324 329 328 325 323 321 319 318 317 316 315 312 309 304 302 303 304
327 326 326 326 326 326 325 325 325 325 326 325 324 323 322 322 322 322 322 322 323 323 323 321 321 326 330 328 325 323 322 323 322 319 315 310 307 306 305 304 305 305
327 326 326 326 326 326 325 325 326 326 326 325 324 322 322 322 323 323 322 323 324 324 323 322 324 328 329 326 324 324 326 328 325 316 310 309 308 307 306 306 306 307
327 327 327 326 326 325 325 326 326 325 325 324 323 322 322 323 323 323 322 324 326 326 323 324 327 328 327 326 325 326 330 331 323 313 310 311 310 309 309 310 310 310
327 327 326 326 325 325 325 325 325 325 324 323 323 323 322 322 322 323 324 326 328 326 325 327 329 327 326 326 326 329 334 330 320 313 313 313 312 312 313 314 314 313